Location: Meanaryar
(48.4161°N, 4.7315°W)
Time: 09:09:38
(UTC+00:00)

Cosmos 1092 Rocket - Pass Details

Date: 26 January 2021
Orbit: 954 x 995 km, 83.0° (Epoch: 02 March)

Event Time Altitude Azimuth Distance (km) Brightness Sun altitude
Rises 19:22:49 0° 206° (SSW) 3,644 7.4 -22.1°
Reaches altitude 10° 19:25:25 10° 212° (SSW) 2,696 6.7 -22.6°
Maximum altitude 19:31:20 47° 286° (WNW) 1,255 4.9 -23.6°
Drops below altitude 10° 19:37:16 10° 359° (N) 2,697 6.3 -24.5°
Sets 19:39:53 0° 6° (N) 3,645 6.9 -25.0°
